Year,Month,Day,Hour,Minute,Value (Times are PST for temperature in C)
2017,08,08,00,00,16.20
2017,08,08,00,01,16.20
2017,08,08,00,02,16.20
2017,08,08,00,03,16.20
2017,08,08,00,04,16.20
2017,08,08,00,05,16.20
2017,08,08,00,06,16.20
2017,08,08,00,07,16.20
2017,08,08,00,08,16.20
2017,08,08,00,09,16.20
2017,08,08,00,10,16.20
2017,08,08,00,11,16.20
2017,08,08,00,12,16.20
2017,08,08,00,13,16.10
2017,08,08,00,14,16.10
2017,08,08,00,15,16.10
2017,08,08,00,16,16.10
2017,08,08,00,17,16.10
2017,08,08,00,18,16.10
2017,08,08,00,19,16.10
2017,08,08,00,20,16.10
2017,08,08,00,21,16.10
2017,08,08,00,22,16.10
2017,08,08,00,23,16.10
2017,08,08,00,24,16.10
2017,08,08,00,25,16.10
2017,08,08,00,26,16.10
2017,08,08,00,27,16.10
2017,08,08,00,28,16.10
2017,08,08,00,29,16.10
2017,08,08,00,30,16.10
2017,08,08,00,31,16.10
2017,08,08,00,32,16.10
2017,08,08,00,33,16.00
2017,08,08,00,34,16.00
2017,08,08,00,35,16.00
2017,08,08,00,36,16.00
2017,08,08,00,37,15.90
2017,08,08,00,38,15.90
2017,08,08,00,39,15.90
2017,08,08,00,40,15.90
2017,08,08,00,41,15.80
2017,08,08,00,42,15.80
2017,08,08,00,43,15.80
2017,08,08,00,44,15.80
2017,08,08,00,45,15.80
2017,08,08,00,46,15.70
2017,08,08,00,47,15.70
2017,08,08,00,48,15.60
2017,08,08,00,49,15.50
2017,08,08,00,50,15.50
2017,08,08,00,51,15.40
2017,08,08,00,52,15.40
2017,08,08,00,53,15.30
2017,08,08,00,54,15.20
2017,08,08,00,55,15.20
2017,08,08,00,56,15.20
2017,08,08,00,57,15.10
2017,08,08,00,58,15.10
2017,08,08,00,59,15.10
2017,08,08,01,00,15.10
2017,08,08,01,01,15.10
2017,08,08,01,02,15.00
2017,08,08,01,03,15.00
2017,08,08,01,04,15.00
2017,08,08,01,05,15.00
2017,08,08,01,06,14.90
2017,08,08,01,07,14.90
2017,08,08,01,08,14.90
2017,08,08,01,09,14.80
2017,08,08,01,10,14.80
2017,08,08,01,11,14.80
2017,08,08,01,12,14.80
2017,08,08,01,13,14.70
2017,08,08,01,14,14.70
2017,08,08,01,15,14.70
2017,08,08,01,16,14.70
2017,08,08,01,17,14.70
2017,08,08,01,18,14.70
2017,08,08,01,19,14.60
2017,08,08,01,20,14.60
2017,08,08,01,21,14.60
2017,08,08,01,22,14.50
2017,08,08,01,23,14.50
2017,08,08,01,24,14.50
2017,08,08,01,25,14.50
2017,08,08,01,26,14.40
2017,08,08,01,27,14.40
2017,08,08,01,28,14.40
2017,08,08,01,29,14.40
2017,08,08,01,30,14.40
2017,08,08,01,31,14.40
2017,08,08,01,32,14.40
2017,08,08,01,33,14.40
2017,08,08,01,34,14.40
2017,08,08,01,35,14.30
2017,08,08,01,36,14.30
2017,08,08,01,37,14.30
2017,08,08,01,38,14.30
2017,08,08,01,39,14.30
2017,08,08,01,40,14.30
2017,08,08,01,41,14.30
2017,08,08,01,42,14.30
2017,08,08,01,43,14.30
2017,08,08,01,44,14.30
2017,08,08,01,45,14.30
2017,08,08,01,46,14.20
2017,08,08,01,47,14.20
2017,08,08,01,48,14.20
2017,08,08,01,49,14.20
2017,08,08,01,50,14.20
2017,08,08,01,51,14.20
2017,08,08,01,52,14.20
2017,08,08,01,53,14.20
2017,08,08,01,54,14.20
2017,08,08,01,55,14.20
2017,08,08,01,56,14.20
2017,08,08,01,57,14.20
2017,08,08,01,58,14.20
2017,08,08,01,59,14.20
2017,08,08,02,00,14.20
2017,08,08,02,01,14.20
2017,08,08,02,02,14.20
2017,08,08,02,03,14.20
2017,08,08,02,04,14.20
2017,08,08,02,05,14.20
2017,08,08,02,06,14.20
2017,08,08,02,07,14.20
2017,08,08,06,47,13.20
2017,08,08,06,48,13.20
2017,08,08,06,49,13.30
2017,08,08,06,50,13.30
2017,08,08,06,51,13.30
2017,08,08,06,52,13.30
2017,08,08,06,53,13.30
2017,08,08,06,54,13.30
2017,08,08,06,55,13.30
2017,08,08,06,56,13.40
2017,08,08,06,57,13.40
2017,08,08,06,58,13.40
2017,08,08,06,59,13.40
2017,08,08,07,00,13.40
2017,08,08,07,01,13.50
2017,08,08,07,02,13.50
2017,08,08,07,03,13.60
2017,08,08,07,04,13.60
2017,08,08,07,05,13.60
2017,08,08,07,06,13.70
2017,08,08,07,07,13.70
2017,08,08,07,08,13.70
2017,08,08,07,09,13.80
2017,08,08,07,10,13.80
2017,08,08,07,11,13.80
2017,08,08,07,12,13.80
2017,08,08,07,13,13.90
2017,08,08,07,14,13.90
2017,08,08,07,15,13.90
2017,08,08,07,16,13.90
2017,08,08,07,17,13.90
2017,08,08,07,18,13.90
2017,08,08,07,19,13.90
2017,08,08,07,20,14.00
2017,08,08,07,21,14.00
2017,08,08,07,22,14.00
2017,08,08,07,23,14.00
2017,08,08,07,24,14.00
2017,08,08,07,25,14.00
2017,08,08,07,26,14.10
2017,08,08,07,27,14.10
2017,08,08,07,28,14.10
2017,08,08,07,29,14.10
2017,08,08,07,30,14.10
2017,08,08,07,31,14.10
2017,08,08,07,32,14.10
2017,08,08,07,33,14.20
2017,08,08,07,34,14.20
2017,08,08,07,35,14.20
2017,08,08,07,36,14.20
2017,08,08,07,37,14.20
2017,08,08,07,38,14.20
2017,08,08,07,39,14.20
2017,08,08,07,40,14.30
2017,08,08,07,41,14.30
2017,08,08,07,42,14.30
2017,08,08,07,43,14.30
2017,08,08,07,44,14.40
2017,08,08,07,45,14.40
2017,08,08,07,46,14.50
2017,08,08,07,47,14.50
2017,08,08,07,48,14.60
2017,08,08,07,49,14.70
2017,08,08,07,50,14.70
2017,08,08,07,51,14.80
2017,08,08,07,52,14.80
2017,08,08,07,53,14.90
2017,08,08,07,54,14.90
2017,08,08,07,55,15.00
2017,08,08,07,56,15.00
2017,08,08,07,57,15.10
2017,08,08,07,58,15.20
2017,08,08,07,59,15.20
2017,08,08,08,00,15.20
2017,08,08,08,01,15.30
2017,08,08,08,02,15.40
2017,08,08,08,03,15.40
2017,08,08,08,04,15.50
2017,08,08,08,05,15.60
2017,08,08,08,06,15.60
2017,08,08,08,07,15.70
2017,08,08,08,08,15.70
2017,08,08,08,09,15.70
2017,08,08,08,10,15.80
2017,08,08,08,11,15.80
2017,08,08,08,12,15.80
2017,08,08,08,13,15.80
2017,08,08,08,14,15.90
2017,08,08,08,15,15.90
2017,08,08,08,16,16.00
2017,08,08,08,17,16.00
2017,08,08,08,18,16.10
2017,08,08,08,19,16.10
2017,08,08,08,20,16.20
2017,08,08,08,21,16.20
2017,08,08,08,22,16.30
2017,08,08,08,23,16.30
2017,08,08,08,24,16.40
2017,08,08,08,25,16.40
2017,08,08,08,26,16.40
2017,08,08,08,27,16.50
2017,08,08,08,28,16.50
2017,08,08,08,29,16.60
2017,08,08,08,30,16.60
2017,08,08,08,31,16.60
2017,08,08,08,32,16.70
2017,08,08,08,33,16.80
2017,08,08,08,34,16.90
2017,08,08,08,35,17.00
2017,08,08,08,36,17.10
2017,08,08,08,37,17.20
2017,08,08,08,38,17.30
2017,08,08,08,39,17.40
2017,08,08,08,40,17.50
2017,08,08,08,41,17.60
2017,08,08,08,42,17.70
2017,08,08,08,43,17.70
2017,08,08,08,44,17.80
2017,08,08,08,45,17.90
2017,08,08,08,46,17.90
2017,08,08,08,47,18.00
2017,08,08,08,48,18.10
2017,08,08,08,49,18.20
2017,08,08,08,50,18.30
2017,08,08,08,51,18.40
2017,08,08,08,52,18.50
2017,08,08,08,53,18.60
2017,08,08,08,54,18.70
2017,08,08,08,55,18.70
2017,08,08,08,56,18.80
2017,08,08,08,57,18.80
2017,08,08,08,58,18.90
2017,08,08,08,59,19.00
2017,08,08,09,00,19.00
2017,08,08,09,01,19.10
2017,08,08,09,02,19.10
2017,08,08,09,03,19.10
2017,08,08,09,04,19.20
2017,08,08,09,05,19.20
2017,08,08,09,06,19.20
2017,08,08,09,07,19.20
2017,08,08,09,08,19.20
2017,08,08,09,09,19.20
2017,08,08,09,10,19.20
2017,08,08,09,11,19.20
2017,08,08,09,12,19.30
2017,08,08,09,13,19.30
2017,08,08,09,14,19.30
2017,08,08,09,15,19.30
2017,08,08,09,16,19.40
2017,08,08,09,17,19.40
2017,08,08,09,18,19.40
2017,08,08,09,19,19.40
2017,08,08,09,20,19.40
2017,08,08,09,21,19.40
2017,08,08,09,22,19.40
2017,08,08,09,23,19.40
2017,08,08,09,24,19.40
2017,08,08,09,25,19.40
2017,08,08,09,26,19.50
2017,08,08,09,27,19.50
2017,08,08,09,28,19.50
2017,08,08,09,29,19.60
2017,08,08,09,30,19.60
2017,08,08,09,31,19.60
2017,08,08,09,32,19.60
2017,08,08,09,33,19.60
2017,08,08,09,34,19.50
2017,08,08,09,35,19.50
2017,08,08,09,36,19.40
2017,08,08,09,37,19.40
2017,08,08,09,38,19.50
2017,08,08,09,39,19.50
2017,08,08,09,40,19.50
2017,08,08,09,41,19.60
2017,08,08,09,42,19.60
2017,08,08,09,43,19.60
2017,08,08,09,44,19.60
2017,08,08,09,45,19.60
2017,08,08,09,46,19.50
2017,08,08,09,47,19.40
2017,08,08,09,48,19.30
2017,08,08,09,49,19.20
2017,08,08,09,50,19.10
2017,08,08,09,51,19.00
2017,08,08,09,52,19.00
2017,08,08,09,53,18.90
2017,08,08,09,54,18.90
2017,08,08,09,55,18.90
2017,08,08,09,56,18.90
2017,08,08,09,57,18.90
2017,08,08,09,58,18.90
2017,08,08,09,59,18.90
2017,08,08,10,00,18.90
2017,08,08,10,01,18.90
2017,08,08,10,02,18.80
2017,08,08,10,03,18.80
2017,08,08,10,04,18.70
2017,08,08,10,05,18.60
2017,08,08,10,06,18.60
2017,08,08,10,07,18.60
2017,08,08,10,08,18.50
2017,08,08,10,09,18.50
2017,08,08,10,10,18.40
2017,08,08,10,11,18.40
2017,08,08,10,12,18.40
2017,08,08,10,13,18.40
2017,08,08,10,14,18.40
2017,08,08,10,15,18.40
2017,08,08,10,16,18.40
2017,08,08,10,17,18.40
2017,08,08,10,18,18.50
2017,08,08,10,19,18.40
2017,08,08,10,20,18.40
2017,08,08,10,21,18.30
2017,08,08,10,22,18.30
2017,08,08,10,23,18.30
2017,08,08,10,24,18.30
2017,08,08,10,25,18.30
2017,08,08,10,26,18.40
2017,08,08,10,27,18.40
2017,08,08,10,28,18.50
2017,08,08,10,29,18.60
2017,08,08,10,30,18.60
2017,08,08,10,31,18.70
2017,08,08,10,32,18.90
2017,08,08,10,33,19.00
2017,08,08,10,34,19.00
2017,08,08,10,35,19.10
2017,08,08,10,36,19.20
2017,08,08,10,37,19.20
2017,08,08,10,38,19.30
2017,08,08,10,39,19.30
2017,08,08,10,40,19.30
2017,08,08,10,41,19.40
2017,08,08,10,42,19.40
2017,08,08,10,43,19.40
2017,08,08,10,44,19.40
2017,08,08,10,45,19.50
2017,08,08,10,46,19.50
2017,08,08,10,47,19.60
2017,08,08,10,48,19.70
2017,08,08,10,49,19.70
2017,08,08,10,50,19.80
2017,08,08,10,51,19.80
2017,08,08,10,52,19.90
2017,08,08,10,53,19.90
2017,08,08,10,54,19.90
2017,08,08,10,55,19.90
2017,08,08,10,56,20.00
2017,08,08,10,57,20.00
2017,08,08,10,58,20.10
2017,08,08,10,59,20.10
2017,08,08,11,00,20.20
2017,08,08,11,01,20.30
2017,08,08,11,02,20.30
2017,08,08,11,03,20.40
2017,08,08,11,04,20.40
2017,08,08,11,05,20.40
2017,08,08,11,06,20.40
2017,08,08,11,07,20.40
2017,08,08,11,08,20.30
2017,08,08,11,09,20.20
2017,08,08,11,10,20.20
2017,08,08,11,11,20.20
2017,08,08,11,12,20.10
2017,08,08,11,13,20.10
2017,08,08,11,14,20.00
2017,08,08,11,15,19.90
2017,08,08,11,16,19.80
2017,08,08,11,17,19.70
2017,08,08,11,18,19.60
2017,08,08,11,19,19.50
2017,08,08,11,20,19.50
2017,08,08,11,21,19.50
2017,08,08,11,22,19.50
2017,08,08,11,23,19.60
2017,08,08,11,24,19.60
2017,08,08,11,25,19.70
2017,08,08,11,26,19.70
2017,08,08,11,27,19.70
2017,08,08,11,28,19.70
2017,08,08,11,29,19.60
2017,08,08,11,30,19.60
2017,08,08,11,31,19.50
2017,08,08,11,32,19.40
2017,08,08,11,33,19.40
2017,08,08,11,34,19.30
2017,08,08,11,35,19.30
2017,08,08,11,36,19.30
2017,08,08,11,37,19.30
2017,08,08,11,38,19.30
2017,08,08,11,39,19.20
2017,08,08,11,40,19.20
2017,08,08,11,41,19.10
2017,08,08,11,42,19.00
2017,08,08,11,43,19.00
2017,08,08,11,44,19.00
2017,08,08,11,45,19.00
2017,08,08,11,46,19.10
2017,08,08,11,47,19.20
2017,08,08,11,48,19.30
2017,08,08,11,49,19.30
2017,08,08,11,50,19.30
2017,08,08,11,51,19.20
2017,08,08,11,52,19.20
2017,08,08,11,53,19.20
2017,08,08,11,54,19.20
2017,08,08,11,55,19.10
2017,08,08,11,56,19.20
2017,08,08,11,57,19.20
2017,08,08,11,58,19.30
2017,08,08,11,59,19.30
2017,08,08,12,00,19.30
2017,08,08,12,01,19.30
2017,08,08,12,02,19.30
2017,08,08,12,03,19.40
2017,08,08,12,04,19.50
2017,08,08,12,05,19.60
2017,08,08,12,06,19.60
2017,08,08,12,07,19.70
2017,08,08,12,08,19.70
2017,08,08,12,09,19.70
2017,08,08,12,10,19.80
2017,08,08,12,11,19.80
2017,08,08,12,12,19.80
2017,08,08,12,13,19.90
2017,08,08,12,14,19.90
2017,08,08,12,15,19.90
2017,08,08,12,16,20.00
2017,08,08,12,17,20.00
2017,08,08,12,18,20.00
2017,08,08,12,19,20.10
2017,08,08,12,20,20.10
2017,08,08,12,21,20.10
2017,08,08,12,22,20.10
2017,08,08,12,23,20.00
2017,08,08,12,24,20.00
2017,08,08,12,25,20.10
2017,08,08,12,26,20.20
2017,08,08,12,27,20.20
2017,08,08,12,28,20.20
2017,08,08,12,29,20.20
2017,08,08,12,30,20.20
2017,08,08,12,31,20.20
2017,08,08,12,32,20.20
2017,08,08,12,33,20.20
2017,08,08,12,34,20.20
2017,08,08,12,35,20.30
2017,08,08,12,36,20.40
2017,08,08,12,37,20.50
2017,08,08,12,38,20.60
2017,08,08,12,39,20.70
2017,08,08,12,40,20.80
2017,08,08,12,41,20.90
2017,08,08,12,42,21.00
2017,08,08,12,43,21.10
2017,08,08,12,44,21.10
2017,08,08,12,45,21.10
2017,08,08,12,46,21.10
2017,08,08,12,47,21.10
2017,08,08,12,48,21.10
2017,08,08,12,49,21.20
2017,08,08,12,50,21.20
2017,08,08,12,51,21.20
2017,08,08,12,52,21.30
2017,08,08,12,53,21.40
2017,08,08,12,54,21.40
2017,08,08,12,55,21.40
2017,08,08,12,56,21.50
2017,08,08,12,57,21.60
2017,08,08,12,58,21.60
2017,08,08,12,59,21.70
2017,08,08,13,00,21.70
2017,08,08,13,01,21.60
2017,08,08,13,02,21.60
2017,08,08,13,03,21.60
2017,08,08,13,04,21.60
2017,08,08,13,05,21.60
2017,08,08,13,06,21.60
2017,08,08,13,07,21.70
2017,08,08,13,08,21.80
2017,08,08,13,09,21.80
2017,08,08,13,10,21.90
2017,08,08,13,11,21.90
2017,08,08,13,12,21.80
2017,08,08,13,13,21.70
2017,08,08,13,14,21.70
2017,08,08,13,15,21.70
2017,08,08,13,16,21.70
2017,08,08,13,17,21.70
2017,08,08,13,18,21.70
2017,08,08,13,19,21.70
2017,08,08,13,20,21.80
2017,08,08,13,21,21.80
2017,08,08,13,22,21.80
2017,08,08,13,23,21.90
2017,08,08,13,24,21.90
2017,08,08,13,25,21.80
2017,08,08,13,26,21.70
2017,08,08,13,27,21.70
2017,08,08,13,28,21.70
2017,08,08,13,29,21.70
2017,08,08,13,30,21.80
2017,08,08,13,31,21.80
2017,08,08,13,32,21.90
2017,08,08,13,33,22.00
2017,08,08,13,34,22.00
2017,08,08,13,35,22.00
2017,08,08,13,36,22.00
2017,08,08,13,37,22.10
2017,08,08,13,38,22.10
2017,08,08,13,39,22.10
2017,08,08,13,40,22.10
2017,08,08,13,41,22.10
2017,08,08,13,42,22.10
2017,08,08,13,43,22.10
2017,08,08,13,44,22.10
2017,08,08,13,45,22.10
2017,08,08,13,46,22.20
2017,08,08,13,47,22.40
2017,08,08,13,48,22.50
2017,08,08,13,49,22.50
2017,08,08,13,50,22.50
2017,08,08,13,51,22.50
2017,08,08,13,52,22.50
2017,08,08,13,53,22.40
2017,08,08,13,54,22.20
2017,08,08,13,55,22.10
2017,08,08,13,56,22.10
2017,08,08,13,57,22.10
2017,08,08,13,58,22.10
2017,08,08,13,59,22.00
2017,08,08,14,00,22.00
2017,08,08,14,01,21.90
2017,08,08,14,02,21.90
2017,08,08,14,03,22.00
2017,08,08,14,04,22.00
2017,08,08,14,05,22.10
2017,08,08,14,06,22.00
2017,08,08,14,07,22.10
2017,08,08,14,08,22.10
2017,08,08,14,09,22.10
2017,08,08,14,10,22.10
2017,08,08,14,11,22.10
2017,08,08,14,12,22.10
2017,08,08,14,13,22.10
2017,08,08,14,14,22.10
2017,08,08,14,15,22.20
2017,08,08,14,16,22.30
2017,08,08,14,17,22.40
2017,08,08,14,18,22.50
2017,08,08,14,19,22.60
2017,08,08,14,20,22.70
2017,08,08,14,21,22.80
2017,08,08,14,22,22.80
2017,08,08,14,23,22.80
2017,08,08,14,24,22.80
2017,08,08,14,25,22.80
2017,08,08,14,26,22.80
2017,08,08,14,27,22.60
2017,08,08,14,28,22.50
2017,08,08,14,29,22.40
2017,08,08,14,30,22.40
2017,08,08,14,31,22.40
2017,08,08,14,32,22.40
2017,08,08,14,33,22.40
2017,08,08,14,34,22.30
2017,08,08,14,35,22.30
2017,08,08,14,36,22.20
2017,08,08,14,37,22.20
2017,08,08,14,38,22.10
2017,08,08,14,39,22.10
2017,08,08,14,40,22.00
2017,08,08,14,41,21.90
2017,08,08,14,42,21.90
2017,08,08,14,43,22.00
2017,08,08,14,44,22.00
2017,08,08,14,45,22.10
2017,08,08,14,46,22.10
2017,08,08,14,47,22.10
2017,08,08,14,48,22.10
2017,08,08,14,49,22.10
2017,08,08,14,50,22.20
2017,08,08,14,51,22.20
2017,08,08,14,52,22.30
2017,08,08,14,53,22.20
2017,08,08,14,54,22.10
2017,08,08,14,55,22.10
2017,08,08,14,56,22.10
2017,08,08,14,57,22.20
2017,08,08,14,58,22.30
2017,08,08,14,59,22.40
2017,08,08,15,00,22.40
2017,08,08,15,01,22.50
2017,08,08,15,02,22.50
2017,08,08,15,03,22.60
2017,08,08,15,04,22.70
2017,08,08,15,05,22.90
2017,08,08,15,06,23.00
2017,08,08,15,07,23.00
2017,08,08,15,08,23.10
2017,08,08,15,09,23.20
2017,08,08,15,10,23.30
2017,08,08,15,11,23.40
2017,08,08,15,12,23.50
2017,08,08,15,13,23.70
2017,08,08,15,14,23.70
2017,08,08,15,15,23.60
2017,08,08,15,16,23.40
2017,08,08,15,17,23.40
2017,08,08,15,18,23.30
2017,08,08,15,19,23.20
2017,08,08,15,20,23.10
2017,08,08,15,21,23.10
2017,08,08,15,22,23.00
2017,08,08,15,23,23.00
2017,08,08,15,24,22.90
2017,08,08,15,25,22.80
2017,08,08,15,26,22.80
2017,08,08,15,27,22.80
2017,08,08,15,28,22.80
2017,08,08,15,29,22.80
2017,08,08,15,30,22.70
2017,08,08,15,31,22.70
2017,08,08,15,32,22.60
2017,08,08,15,33,22.50
2017,08,08,15,34,22.40
2017,08,08,15,35,22.30
2017,08,08,15,36,22.20
2017,08,08,15,37,22.30
2017,08,08,15,38,22.30
2017,08,08,15,39,22.30
2017,08,08,15,40,22.30
2017,08,08,15,41,22.30
2017,08,08,15,42,22.20
2017,08,08,15,43,22.20
2017,08,08,15,44,22.20
2017,08,08,15,45,22.20
2017,08,08,15,46,22.30
2017,08,08,15,47,22.40
2017,08,08,15,48,22.60
2017,08,08,15,49,22.70
2017,08,08,15,50,22.70
2017,08,08,15,51,22.70
2017,08,08,15,52,22.60
2017,08,08,15,53,22.50
2017,08,08,15,54,22.50
2017,08,08,15,55,22.50
2017,08,08,15,56,22.50
2017,08,08,15,57,22.50
2017,08,08,15,58,22.40
2017,08,08,15,59,22.40
2017,08,08,16,00,22.30
2017,08,08,16,01,22.30
2017,08,08,16,02,22.30
2017,08,08,16,03,22.40
2017,08,08,16,04,22.40
2017,08,08,16,05,22.30
2017,08,08,16,06,22.30
2017,08,08,16,07,22.30
2017,08,08,16,08,22.20
2017,08,08,16,09,22.20
2017,08,08,16,10,22.20
2017,08,08,16,11,22.10
2017,08,08,16,12,22.00
2017,08,08,16,13,21.90
2017,08,08,16,14,21.90
2017,08,08,16,15,22.00
2017,08,08,16,16,22.00
2017,08,08,16,17,22.00
2017,08,08,16,18,22.00
2017,08,08,16,19,22.00
2017,08,08,16,20,22.10
2017,08,08,16,21,22.10
2017,08,08,16,22,22.10
2017,08,08,16,23,22.10
2017,08,08,16,24,22.10
2017,08,08,16,25,22.10
2017,08,08,16,26,22.10
2017,08,08,16,27,22.20
2017,08,08,16,28,22.20
2017,08,08,16,29,22.10
2017,08,08,16,30,22.10
2017,08,08,16,31,22.00
2017,08,08,16,32,22.00
2017,08,08,16,33,21.90
2017,08,08,16,34,21.90
2017,08,08,16,35,21.90
2017,08,08,16,36,22.00
2017,08,08,16,37,22.00
2017,08,08,16,38,22.20
2017,08,08,16,39,22.20
2017,08,08,16,40,22.30
2017,08,08,16,41,22.30
2017,08,08,16,42,22.30
2017,08,08,16,43,22.40
2017,08,08,16,44,22.40
2017,08,08,16,45,22.40
2017,08,08,16,46,22.40
2017,08,08,16,47,22.30
2017,08,08,16,48,22.30
2017,08,08,16,49,22.30
2017,08,08,16,50,22.30
2017,08,08,16,51,22.30
2017,08,08,16,52,22.30
2017,08,08,16,53,22.30
2017,08,08,16,54,22.40
2017,08,08,16,55,22.50
2017,08,08,16,56,22.50
2017,08,08,16,57,22.60
2017,08,08,16,58,22.70
2017,08,08,16,59,22.70
2017,08,08,17,00,22.80
2017,08,08,17,01,22.80
2017,08,08,17,02,22.90
2017,08,08,17,03,23.00
2017,08,08,17,04,23.00
2017,08,08,17,05,23.00
2017,08,08,17,06,23.00
2017,08,08,17,07,22.90
2017,08,08,17,08,23.00
2017,08,08,17,09,23.00
2017,08,08,17,10,23.10
2017,08,08,17,11,23.10
2017,08,08,17,12,23.10
2017,08,08,17,13,23.10
2017,08,08,17,14,23.10
2017,08,08,17,15,23.10
2017,08,08,17,16,23.10
2017,08,08,17,17,23.10
2017,08,08,17,18,23.20
2017,08,08,17,19,23.20
2017,08,08,17,20,23.20
2017,08,08,17,21,23.20
2017,08,08,17,22,23.20
2017,08,08,17,23,23.30
2017,08,08,17,24,23.30
2017,08,08,17,25,23.40
2017,08,08,17,26,23.40
2017,08,08,17,27,23.40
2017,08,08,17,28,23.40
2017,08,08,17,29,23.50
2017,08,08,17,30,23.50
2017,08,08,17,31,23.50
2017,08,08,17,32,23.50
2017,08,08,17,33,23.50
2017,08,08,17,34,23.60
2017,08,08,17,35,23.60
2017,08,08,17,36,23.60
2017,08,08,17,37,23.60
2017,08,08,17,38,23.60
2017,08,08,17,39,23.70
2017,08,08,17,40,23.80
2017,08,08,17,41,23.80
2017,08,08,17,42,23.80
2017,08,08,17,43,23.80
2017,08,08,17,44,23.80
2017,08,08,17,45,23.80
2017,08,08,17,46,23.80
2017,08,08,17,47,23.80
2017,08,08,17,48,23.80
2017,08,08,17,49,23.80
2017,08,08,17,50,23.80
2017,08,08,17,51,23.80
2017,08,08,17,52,23.80
2017,08,08,17,53,23.80
2017,08,08,17,54,23.80
2017,08,08,17,55,23.80
2017,08,08,17,56,23.90
2017,08,08,17,57,23.90
2017,08,08,17,58,24.00
2017,08,08,17,59,24.10
2017,08,08,18,00,24.20
2017,08,08,18,01,24.30
2017,08,08,18,02,24.30
2017,08,08,18,03,24.30
2017,08,08,18,04,24.30
2017,08,08,18,05,24.30
2017,08,08,18,06,24.30
2017,08,08,18,07,24.40
2017,08,08,18,08,24.40
2017,08,08,18,09,24.50
2017,08,08,18,10,24.50
2017,08,08,18,11,24.40
2017,08,08,18,12,24.40
2017,08,08,18,13,24.40
2017,08,08,18,14,24.30
2017,08,08,18,15,24.30
2017,08,08,18,16,24.30
2017,08,08,18,17,24.30
2017,08,08,18,18,24.20
2017,08,08,18,19,24.20
2017,08,08,18,20,24.10
2017,08,08,18,21,24.00
2017,08,08,18,22,23.90
2017,08,08,18,23,23.90
2017,08,08,18,24,23.90
2017,08,08,18,25,23.80
2017,08,08,18,26,23.80
2017,08,08,18,27,23.90
2017,08,08,18,28,23.90
2017,08,08,18,29,24.00
2017,08,08,18,30,24.00
2017,08,08,18,31,24.00
2017,08,08,18,32,24.00
2017,08,08,18,33,23.90
2017,08,08,18,34,23.80
2017,08,08,18,35,23.70
2017,08,08,18,36,23.60
2017,08,08,18,37,23.50
2017,08,08,18,38,23.50
2017,08,08,18,39,23.40
2017,08,08,18,40,23.40
2017,08,08,18,41,23.40
2017,08,08,18,42,23.40
2017,08,08,18,43,23.30
2017,08,08,18,44,23.30
2017,08,08,18,45,23.30
2017,08,08,18,46,23.30
2017,08,08,18,47,23.30
2017,08,08,18,48,23.30
2017,08,08,18,49,23.30
2017,08,08,18,50,23.30
2017,08,08,18,51,23.30
2017,08,08,18,52,23.30
2017,08,08,18,53,23.30
2017,08,08,18,54,23.30
2017,08,08,18,55,23.30
2017,08,08,18,56,23.20
2017,08,08,18,57,23.10
2017,08,08,18,58,23.10
2017,08,08,18,59,23.10
2017,08,08,19,00,23.20
2017,08,08,19,01,23.20
2017,08,08,19,02,23.20
2017,08,08,19,03,23.30
2017,08,08,19,04,23.30
2017,08,08,19,05,23.20
2017,08,08,19,06,23.20
2017,08,08,19,07,23.20
2017,08,08,19,08,23.10
2017,08,08,19,09,23.10
2017,08,08,19,10,23.00
2017,08,08,19,11,22.90
2017,08,08,19,12,22.90
2017,08,08,19,13,22.90
2017,08,08,19,14,22.80
2017,08,08,19,15,22.80
2017,08,08,19,16,22.80
2017,08,08,19,17,22.70
2017,08,08,19,18,22.70
2017,08,08,19,19,22.60
2017,08,08,19,20,22.60
2017,08,08,19,21,22.50
2017,08,08,19,22,22.40
2017,08,08,19,23,22.30
2017,08,08,19,24,22.30
2017,08,08,19,25,22.20
2017,08,08,19,26,22.20
2017,08,08,19,27,22.20
2017,08,08,19,28,22.10
2017,08,08,19,29,22.10
2017,08,08,19,30,22.00
2017,08,08,19,31,22.00
2017,08,08,19,32,22.00
2017,08,08,19,33,21.90
2017,08,08,19,34,21.90
2017,08,08,19,35,21.90
2017,08,08,19,36,21.90
2017,08,08,19,37,21.80
2017,08,08,19,38,21.80
2017,08,08,19,39,21.80
2017,08,08,19,40,21.70
2017,08,08,19,41,21.70
2017,08,08,19,42,21.60
2017,08,08,19,43,21.50
2017,08,08,19,44,21.50
2017,08,08,19,45,21.40
2017,08,08,19,46,21.40
2017,08,08,19,47,21.30
2017,08,08,19,48,21.30
2017,08,08,19,49,21.30
2017,08,08,19,50,21.20
2017,08,08,19,51,21.20
2017,08,08,19,52,21.20
2017,08,08,19,53,21.10
2017,08,08,19,54,21.10
2017,08,08,19,55,21.00
2017,08,08,19,56,20.90
2017,08,08,19,57,20.80
2017,08,08,19,58,20.80
2017,08,08,19,59,20.70
2017,08,08,20,00,20.60
2017,08,08,20,01,20.50
2017,08,08,20,02,20.40
2017,08,08,20,03,20.30
2017,08,08,20,04,20.20
2017,08,08,20,05,20.10
2017,08,08,20,06,19.90
2017,08,08,20,07,19.80
2017,08,08,20,08,19.70
2017,08,08,20,09,19.60
2017,08,08,20,10,19.50
2017,08,08,20,11,19.40
2017,08,08,20,12,19.30
2017,08,08,20,13,19.20
2017,08,08,20,14,19.20
2017,08,08,20,15,19.10
2017,08,08,20,16,19.00
2017,08,08,20,17,19.00
2017,08,08,20,18,18.90
2017,08,08,20,19,18.90
2017,08,08,20,20,18.90
2017,08,08,20,21,18.90
2017,08,08,20,22,18.80
2017,08,08,20,23,18.80
2017,08,08,20,24,18.80
2017,08,08,20,25,18.80
2017,08,08,20,26,18.70
2017,08,08,20,27,18.70
2017,08,08,20,28,18.70
2017,08,08,20,29,18.60
2017,08,08,20,30,18.60
2017,08,08,20,31,18.60
2017,08,08,20,32,18.60
2017,08,08,20,33,18.60
2017,08,08,20,34,18.60
2017,08,08,20,35,18.60
2017,08,08,20,36,18.60
2017,08,08,20,37,18.60
2017,08,08,20,38,18.60
2017,08,08,20,39,18.60
2017,08,08,20,40,18.50
2017,08,08,20,41,18.50
2017,08,08,20,42,18.50
2017,08,08,20,43,18.40
2017,08,08,20,44,18.40
2017,08,08,20,45,18.40
2017,08,08,20,46,18.30
2017,08,08,20,47,18.30
2017,08,08,20,48,18.20
2017,08,08,20,49,18.20
2017,08,08,20,50,18.20
2017,08,08,20,51,18.20
2017,08,08,20,52,18.20
2017,08,08,20,53,18.10
2017,08,08,20,54,18.10
2017,08,08,20,55,18.10
2017,08,08,20,56,18.10
2017,08,08,20,57,18.10
2017,08,08,20,58,18.00
2017,08,08,20,59,18.00
2017,08,08,21,00,18.00
2017,08,08,21,01,17.90
2017,08,08,21,02,17.90
2017,08,08,21,03,17.90
2017,08,08,21,04,17.90
2017,08,08,21,05,17.90
2017,08,08,21,06,17.80
2017,08,08,21,07,17.80
2017,08,08,21,08,17.80
2017,08,08,21,09,17.80
2017,08,08,21,10,17.80
2017,08,08,21,11,17.80
2017,08,08,21,12,17.80
2017,08,08,21,13,17.80
2017,08,08,21,14,17.70
2017,08,08,21,15,17.70
2017,08,08,21,16,17.70
2017,08,08,21,17,17.70
2017,08,08,21,18,17.70
2017,08,08,21,19,17.60
2017,08,08,21,20,17.60
2017,08,08,21,21,17.60
2017,08,08,21,22,17.50
2017,08,08,21,23,17.50
2017,08,08,21,24,17.40
2017,08,08,21,25,17.40
2017,08,08,21,26,17.40
2017,08,08,21,27,17.40
2017,08,08,21,28,17.30
2017,08,08,21,29,17.30
2017,08,08,21,30,17.30
2017,08,08,21,31,17.30
2017,08,08,21,32,17.20
2017,08,08,21,33,17.20
2017,08,08,21,34,17.20
2017,08,08,21,35,17.20
2017,08,08,21,36,17.10
2017,08,08,21,37,17.10
2017,08,08,21,38,17.10
2017,08,08,21,39,17.10
2017,08,08,21,40,17.10
2017,08,08,21,41,17.10
2017,08,08,21,42,17.10
2017,08,08,21,43,17.10
2017,08,08,21,44,17.00
2017,08,08,21,45,17.00
2017,08,08,21,46,17.00
2017,08,08,21,47,17.00
2017,08,08,21,48,16.90
2017,08,08,21,49,16.90
2017,08,08,21,50,16.90
2017,08,08,21,51,16.90
2017,08,08,21,52,16.90
2017,08,08,21,53,16.90
2017,08,08,21,54,16.90
2017,08,08,21,55,16.90
2017,08,08,21,56,16.90
2017,08,08,21,57,16.90
2017,08,08,21,58,16.90